ICEYE-X56

导读

ICEYE-X56是一颗由ICEYE公司打造的合成孔径雷达卫星,计划于2025年6月23日发射,发射国家暂未公布。作为ICEYE卫星星座的组成部分,它将延续该星座高分辨率对地观测能力,可为灾害监测、资源勘探、国家安全等多个领域提供及时精准的雷达遥感数据服务。

Basic Information
目录编号:
64574
目录名称:
ICEYE-X56
国际标识:
2025-135AY
轨道中心:
EARTH
卫星名称:
ICEYE-X56
卫星全名:
ICEYE-X56
卫星状态:
在轨 (已飞行360 天)
发射日期:
2025-06-23 UTC
国别 :
(FI)
星等 :
--
Orbit Information
数据来源 国际轨道数据 AOE轨道数据
星历时间 2026-06-18T05:37:58+0800
11小时前
查看轨道信息
2026-06-14T04:00:00+0800
4天前
查看轨道信息
半长轴 6958.61km 6958.666km
偏心率 0.0001602 0.000182
轨道倾角 97.775° 97.776°
近地点辐角 9.364° 29.306°
升交点赤经 283.853° 279.818°
平近点角 350.760° 41.389°
近地点 579.358km 579.262km
远地点 581.588km 581.796km
周期 96.282分钟 96.283分钟
每日圈数 14.956123 14.955944
Detailed Information
使用方式:
暂无
2D Orbit Map
3D Orbit Map
Orbit Altitude Analysis Chart
Orbit Inclination Analysis Chart
Orbit Comprehensive Analysis Chart
View Comprehensive Chart